sampling_time,wmo_synop_id,msc_id,stn_nam,stn_elev,lat,long,stn_typ,date_tm,rpt_typ,result_time,crnt_buoy_lat,crnt_buoy_lat_qa_summary,crnt_buoy_long,crnt_buoy_long_qa_summary,avg_air_temp_pst10mts,avg_air_temp_pst10mts_qa_summary,avg_sea_sfc_temp_pst10mts,avg_sea_sfc_temp_pst10mts_qa_summary,avg_batry_volt_pst10mts,avg_batry_volt_pst10mts_qa_summary,avg_solr_panl_crnt_pst10mts,avg_solr_panl_crnt_pst10mts_qa_summary,avg_wtr_lvl_snsr_volt_pst10mts,avg_wtr_lvl_snsr_volt_pst10mts_qa_summary,avg_wave_hgt_pst20mts,avg_wave_hgt_pst20mts_qa_summary,pk_wave_hgt_pst20mts,pk_wave_hgt_pst20mts_qa_summary,sig_wave_pd_pst20mts,sig_wave_pd_pst20mts_qa_summary,sig_wave_hgt_pst20mts,sig_wave_hgt_pst20mts_qa_summary,avg_max_wave_hgt_pst20mts,avg_max_wave_hgt_pst20mts_qa_summary,avg_max_wave_pd_pst20mts,avg_max_wave_pd_pst20mts_qa_summary,avg_wave_pd_pst20mts,avg_wave_pd_pst20mts_qa_summary,pk_wave_pd_pst20mts,pk_wave_pd_pst20mts_qa_summary,avg_stn_pres_pst10mts,avg_stn_pres_pst10mts_qa_summary,avg_wnd_spd_pst10mts,avg_wnd_spd_pst10mts_qa_summary,avg_wnd_dir_pst10mts,avg_wnd_dir_pst10mts_qa_summary,max_avg_wnd_spd_pst10mts,max_avg_wnd_spd_pst10mts_qa_summary,wnd_snsr_vert_disp,wnd_snsr_vert_disp_qa_summary,pres_tend_char_pst3hrs,pres_tend_char_pst3hrs_data_flag,pres_tend_amt_pst3hrs,pres_tend_amt_pst3hrs_data_flag,avg_mslp_pst10mts,avg_mslp_pst10mts_data_flag,avg_stn_pres_pst10mts_1,avg_stn_pres_pst10mts_2,avg_wnd_spd_pst10mts_1,avg_wnd_spd_pst10mts_2,avg_wnd_dir_pst10mts_1,avg_wnd_dir_pst10mts_2,max_avg_wnd_spd_pst10mts_1,max_avg_wnd_spd_pst10mts_2,wnd_snsr_vert_disp_1,wnd_snsr_vert_disp_2
2020-10-20T00:00:00Z,44489,9302001,West Chedabucto Bay,0.0,45.48687,-61.14100000000001,18,2020-10-20T00:00:00.000Z,108,2020-10-20T00:02:54.053Z,45.48738,100,-61.14128,100,12.9,100,12.6,100,12.5,100,0.0,100,3.6,100,0.3,100,0.7,100,5.8,100,0.4,100,0.5,100,6.4,100,4.7,100,8.3,100,1029.6,100,10.1,100,101,100,12.6,100,5.0,100,7,1,-0.6,1,1029.6,1,1029.6,1029.6,10.1,8.6,101,104,12.6,11.2,5.0,4.0
2020-10-20T00:10:00Z,44489,9302001,West Chedabucto Bay,0.0,45.48687,-61.14100000000001,18,2020-10-20T00:10:00.000Z,110,2020-10-20T00:12:30.468Z,,-1,,-1,13.5,100,13.3,100,12.5,100,0.0,100,3.6,100,,-1,,-1,,-1,,-1,,-1,,-1,,-1,,-1,1029.5,100,10.8,100,101,100,12.6,100,5.0,100,8,1,-0.7,1,1029.5,1,1029.5,1029.5,10.8,9.7,101,106,12.6,11.2,5.0,4.0
2020-10-20T00:20:00Z,44489,9302001,West Chedabucto Bay,0.0,45.48687,-61.14100000000001,18,2020-10-20T00:20:00.000Z,110,2020-10-20T00:22:48.732Z,45.48737,100,-61.14127,100,12.9,100,12.6,100,12.5,100,0.0,100,3.6,100,,-1,,-1,,-1,,-1,,-1,,-1,,-1,,-1,1029.5,100,12.2,100,109,100,14.8,100,5.0,100,8,1,-0.8,1,1029.5,1,1029.5,1029.5,12.2,11.5,109,114,14.8,14.0,5.0,4.0
2020-10-20T00:30:00Z,44489,9302001,West Chedabucto Bay,0.0,45.48687,-61.14100000000001,18,2020-10-20T00:30:00.000Z,110,2020-10-20T00:32:46.006Z,45.48737,100,-61.14127,100,13.0,100,12.6,100,12.5,100,0.0,100,3.6,100,,-1,,-1,,-1,,-1,,-1,,-1,,-1,,-1,1029.4,100,13.0,100,115,100,14.8,100,5.0,100,8,1,-0.8,1,1029.4,1,1029.4,1029.4,13.0,12.6,115,119,14.8,14.4,5.0,4.0
2020-10-20T00:40:00Z,44489,9302001,West Chedabucto Bay,0.0,45.48687,-61.14100000000001,18,2020-10-20T00:40:00.000Z,110,2020-10-20T00:42:56.254Z,45.48737,100,-61.14127,100,13.0,100,12.6,100,12.5,100,0.0,100,3.6,100,,-1,,-1,,-1,,-1,,-1,,-1,,-1,,-1,1029.4,100,12.2,100,125,100,14.8,100,5.0,100,8,1,-0.7,1,1029.4,1,1029.4,1029.4,12.2,11.9,125,130,14.8,14.4,5.0,4.0
2020-10-20T00:50:00Z,44489,9302001,West Chedabucto Bay,0.0,45.48687,-61.14100000000001,18,2020-10-20T00:50:00.000Z,110,2020-10-20T00:52:58.946Z,45.48735,100,-61.14125,100,12.9,100,12.6,100,12.5,100,0.0,100,3.6,100,,-1,,-1,,-1,,-1,,-1,,-1,,-1,,-1,1029.5,100,9.4,100,122,100,10.8,100,5.0,100,7,1,-0.4,1,1029.5,1,1029.5,1029.5,9.4,9.0,122,127,10.8,10.4,5.0,4.0
2020-10-20T01:00:00Z,44489,9302001,West Chedabucto Bay,0.0,45.48687,-61.14100000000001,18,2020-10-20T01:00:00.000Z,108,2020-10-20T01:03:02.716Z,45.48738,100,-61.14125,100,13.0,100,12.6,100,12.5,100,0.0,100,3.6,100,0.3,100,0.6,100,6.3,100,0.4,100,0.5,100,6.3,100,4.7,100,8.0,100,1029.4,100,11.5,100,130,100,14.4,100,5.0,100,7,1,-0.6,1,1029.4,1,1029.4,1029.4,11.5,11.2,130,135,14.4,14.0,5.0,4.0
2020-10-20T01:10:00Z,44489,9302001,West Chedabucto Bay,0.0,45.48687,-61.14100000000001,18,2020-10-20T01:10:00.000Z,110,2020-10-20T01:16:02.694Z,45.48737,100,-61.14125,100,13.3,100,12.6,100,12.5,100,0.0,100,3.6,100,,-1,,-1,,-1,,-1,,-1,,-1,,-1,,-1,1029.3,100,15.1,100,136,100,18.0,100,5.0,100,7,1,-0.8,1,1029.3,1,1029.3,1029.3,15.1,14.8,136,141,18.0,17.3,5.0,4.0
2020-10-20T01:20:00Z,44489,9302001,West Chedabucto Bay,0.0,45.48687,-61.14100000000001,18,2020-10-20T01:20:00.000Z,110,2020-10-20T01:23:01.239Z,45.48737,100,-61.14125,100,13.3,100,12.6,100,12.5,100,0.0,100,3.6,100,,-1,,-1,,-1,,-1,,-1,,-1,,-1,,-1,1029.2,100,15.1,100,139,100,17.3,100,5.0,100,7,1,-0.9,1,1029.2,1,1029.2,1029.2,15.1,14.8,139,144,17.3,16.9,5.0,4.0
2020-10-20T01:30:00Z,44489,9302001,West Chedabucto Bay,0.0,45.48687,-61.14100000000001,18,2020-10-20T01:30:00.000Z,110,2020-10-20T01:33:03.002Z,45.48738,100,-61.14127,100,13.2,100,12.6,100,12.5,100,0.0,100,3.6,100,,-1,,-1,,-1,,-1,,-1,,-1,,-1,,-1,1029.2,100,14.0,100,142,100,16.6,100,5.0,100,6,1,-0.9,1,1029.2,1,1029.2,1029.2,14.0,13.7,142,147,16.6,15.8,5.0,4.0
2020-10-20T01:40:00Z,44489,9302001,West Chedabucto Bay,0.0,45.48687,-61.14100000000001,18,2020-10-20T01:40:00.000Z,110,2020-10-20T01:43:18.346Z,45.48735,100,-61.14128,100,13.1,100,12.6,100,12.4,100,0.0,100,3.6,100,,-1,,-1,,-1,,-1,,-1,,-1,,-1,,-1,1029.3,100,13.0,100,137,100,15.5,100,5.0,100,6,1,-0.7,1,1029.3,1,1029.3,1029.3,13.0,12.6,137,142,15.5,15.1,5.0,4.0
2020-10-20T01:50:00Z,44489,9302001,West Chedabucto Bay,0.0,45.48687,-61.14100000000001,18,2020-10-20T01:50:00.000Z,110,2020-10-20T01:53:15.300Z,45.48735,100,-61.14128,100,13.0,100,12.6,100,12.4,100,0.0,100,3.6,100,,-1,,-1,,-1,,-1,,-1,,-1,,-1,,-1,1029.4,100,9.7,100,139,100,11.2,100,5.0,100,6,1,-0.4,1,1029.4,1,1029.4,1029.5,9.7,9.4,139,144,11.2,11.2,5.0,4.0
2020-10-20T02:00:00Z,44489,9302001,West Chedabucto Bay,0.0,45.48687,-61.14100000000001,18,2020-10-20T02:00:00.000Z,108,2020-10-20T02:04:18.969Z,45.48738,100,-61.14127,100,13.1,100,12.6,100,12.4,100,0.0,100,3.6,100,0.3,100,0.6,100,6.4,100,0.4,100,0.5,100,6.9,100,4.6,100,7.1,100,1029.6,100,8.3,100,146,100,9.4,100,5.0,100,5,1,-0.2,1,1029.6,1,1029.6,1029.6,8.3,7.9,146,151,9.4,9.0,5.0,4.0
2020-10-20T02:10:00Z,44489,9302001,West Chedabucto Bay,0.0,45.48687,-61.14100000000001,18,2020-10-20T02:10:00.000Z,110,2020-10-20T02:16:20.383Z,45.48737,100,-61.14125,100,13.1,100,12.6,100,12.4,100,0.0,100,3.6,100,,-1,,-1,,-1,,-1,,-1,,-1,,-1,,-1,1029.8,100,8.6,100,144,100,10.4,100,5.0,100,5,1,0.0,1,1029.8,1,1029.8,1029.8,8.6,8.6,144,148,10.4,10.1,5.0,4.0
2020-10-20T02:20:00Z,44489,9302001,West Chedabucto Bay,0.0,45.48687,-61.14100000000001,18,2020-10-20T02:20:00.000Z,110,2020-10-20T02:23:21.110Z,45.48735,100,-61.14127,100,13.1,100,12.6,100,12.4,100,0.0,100,3.6,100,,-1,,-1,,-1,,-1,,-1,,-1,,-1,,-1,1029.7,100,9.7,100,134,100,11.9,100,5.0,100,5,1,-0.1,1,1029.7,1,1029.7,1029.7,9.7,9.4,134,138,11.9,11.5,5.0,4.0
2020-10-20T02:30:00Z,44489,9302001,West Chedabucto Bay,0.0,45.48687,-61.14100000000001,18,2020-10-20T02:30:00.000Z,110,2020-10-20T02:33:21.119Z,45.48737,100,-61.14125,100,13.1,100,12.6,100,12.4,100,0.0,100,3.6,100,,-1,,-1,,-1,,-1,,-1,,-1,,-1,,-1,1029.7,100,8.6,100,138,100,10.1,100,5.0,100,5,1,0.0,1,1029.7,1,1029.7,1029.8,8.6,8.3,138,143,10.1,9.7,5.0,4.0
2020-10-20T02:40:00Z,44489,9302001,West Chedabucto Bay,0.0,45.48687,-61.14100000000001,18,2020-10-20T02:40:00.000Z,110,2020-10-20T02:43:26.738Z,45.48737,100,-61.14125,100,13.1,100,12.6,100,12.4,100,0.0,100,3.6,100,,-1,,-1,,-1,,-1,,-1,,-1,,-1,,-1,1029.6,100,9.7,100,139,100,11.2,100,5.0,100,5,1,-0.1,1,1029.6,1,1029.6,1029.6,9.7,9.4,139,144,11.2,10.8,5.0,4.0
2020-10-20T02:50:00Z,44489,9302001,West Chedabucto Bay,0.0,45.48687,-61.14100000000001,18,2020-10-20T02:50:00.000Z,110,2020-10-20T02:53:26.098Z,45.48738,100,-61.14123000000001,100,13.2,100,12.6,100,12.4,100,0.0,100,3.6,100,,-1,,-1,,-1,,-1,,-1,,-1,,-1,,-1,1029.5,100,10.4,100,138,100,12.2,100,5.0,100,6,1,-0.2,1,1029.5,1,1029.5,1029.5,10.4,10.1,138,143,12.2,11.5,5.0,4.0
2020-10-20T03:00:00Z,44489,9302001,West Chedabucto Bay,0.0,45.48687,-61.14100000000001,18,2020-10-20T03:00:00.000Z,108,2020-10-20T03:04:00.551Z,45.48737,100,-61.14123000000001,100,13.2,100,12.6,100,12.4,100,0.0,100,3.6,100,0.3,100,0.7,100,6.0,100,0.4,100,0.5,100,5.7,100,4.6,100,7.7,100,1029.3,100,10.8,100,125,100,12.6,100,5.0,100,8,1,-0.3,1,1029.3,1,1029.3,1029.3,10.8,10.4,125,129,12.6,12.2,5.0,4.0
2020-10-20T03:10:00Z,44489,9302001,West Chedabucto Bay,0.0,45.48687,-61.14100000000001,18,2020-10-20T03:10:00.000Z,110,2020-10-20T03:16:42.240Z,45.48735,100,-61.14125,100,13.1,100,12.6,100,12.4,100,0.0,100,3.6,100,,-1,,-1,,-1,,-1,,-1,,-1,,-1,,-1,1029.3,100,10.8,100,126,100,12.6,100,5.0,100,8,1,-0.2,1,1029.3,1,1029.3,1029.3,10.8,10.1,126,130,12.6,12.6,5.0,4.0
2020-10-20T03:20:00Z,44489,9302001,West Chedabucto Bay,0.0,45.48687,-61.14100000000001,18,2020-10-20T03:20:00.000Z,110,2020-10-20T03:22:36.737Z,45.48737,100,-61.14125,100,13.2,100,12.6,100,12.4,100,0.0,100,3.6,100,,-1,,-1,,-1,,-1,,-1,,-1,,-1,,-1,1029.2,100,12.2,100,128,100,14.0,100,5.0,100,8,1,-0.2,1,1029.2,1,1029.2,1029.2,12.2,11.5,128,132,14.0,13.7,5.0,4.0
2020-10-20T03:30:00Z,44489,9302001,West Chedabucto Bay,0.0,45.48687,-61.14100000000001,18,2020-10-20T03:30:00.000Z,110,2020-10-20T03:32:48.281Z,45.48735,100,-61.14125,100,13.1,100,12.6,100,12.4,100,0.0,100,3.6,100,,-1,,-1,,-1,,-1,,-1,,-1,,-1,,-1,1029.2,100,9.4,100,129,100,12.6,100,5.0,100,8,1,-0.2,1,1029.2,1,1029.2,1029.3,9.4,7.9,129,134,12.6,11.9,5.0,4.0
2020-10-20T03:40:00Z,44489,9302001,West Chedabucto Bay,0.0,45.48687,-61.14100000000001,18,2020-10-20T03:40:00.000Z,110,2020-10-20T03:42:52.286Z,45.48735,100,-61.14123000000001,100,13.2,100,12.6,100,12.4,100,0.0,100,3.6,100,,-1,,-1,,-1,,-1,,-1,,-1,,-1,,-1,1029.2,100,7.6,100,125,100,9.0,100,5.0,100,8,1,-0.2,1,1029.2,1,1029.2,1029.2,7.6,6.8,125,131,9.0,7.9,5.0,4.0
2020-10-20T03:50:00Z,44489,9302001,West Chedabucto Bay,0.0,45.48687,-61.14100000000001,18,2020-10-20T03:50:00.000Z,110,2020-10-20T03:52:39.959Z,45.48735,100,-61.14123000000001,100,13.1,100,12.6,100,12.4,100,0.0,100,3.6,100,,-1,,-1,,-1,,-1,,-1,,-1,,-1,,-1,1029.1,100,5.0,100,113,100,7.2,100,5.0,100,8,1,-0.4,1,1029.1,1,1029.1,1029.1,5.0,5.0,113,119,7.2,7.2,5.0,4.0
2020-10-20T04:00:00Z,44489,9302001,West Chedabucto Bay,0.0,45.48687,-61.14100000000001,18,2020-10-20T04:00:00.000Z,108,2020-10-20T04:02:58.711Z,45.48737,100,-61.14122,100,13.2,100,12.6,100,12.4,100,0.0,100,3.6,100,0.3,100,0.6,100,5.9,100,0.4,100,0.5,100,6.5,100,4.8,100,8.0,100,1029.1,100,1.4,100,123,100,2.5,100,5.0,100,8,1,-0.3,1,1029.1,1,1029.1,1029.1,1.4,1.4,123,129,2.5,2.5,5.0,4.0
2020-10-20T04:10:00Z,44489,9302001,West Chedabucto Bay,0.0,45.48687,-61.14100000000001,18,2020-10-20T04:10:00.000Z,110,2020-10-20T04:15:56.691Z,45.48738,100,-61.14123000000001,100,13.4,100,12.6,100,12.4,100,0.0,100,3.6,100,,-1,,-1,,-1,,-1,,-1,,-1,,-1,,-1,1029.0,100,4.3,100,136,100,10.8,100,5.0,100,8,1,-0.3,1,1029.0,1,1029.0,1029.0,4.3,4.3,136,141,10.8,9.4,5.0,4.0
2020-10-20T04:20:00Z,44489,9302001,West Chedabucto Bay,0.0,45.48687,-61.14100000000001,18,2020-10-20T04:20:00.000Z,110,2020-10-20T04:23:08.920Z,45.48735,100,-61.14123000000001,100,13.8,100,12.6,100,12.4,100,0.0,100,3.6,100,,-1,,-1,,-1,,-1,,-1,,-1,,-1,,-1,1028.9,100,8.6,100,135,100,11.9,100,5.0,100,8,1,-0.4,1,1028.9,1,1028.9,1028.9,8.6,7.6,135,139,11.9,11.5,5.0,4.0
2020-10-20T04:30:00Z,44489,9302001,West Chedabucto Bay,0.0,45.48687,-61.14100000000001,18,2020-10-20T04:30:00.000Z,110,2020-10-20T04:33:13.466Z,45.48737,100,-61.14123000000001,100,13.6,100,12.6,100,12.4,100,0.0,100,3.6,100,,-1,,-1,,-1,,-1,,-1,,-1,,-1,,-1,1028.9,100,6.8,100,133,100,9.7,100,5.0,100,8,1,-0.3,1,1028.9,1,1028.9,1028.9,6.8,6.1,133,138,9.7,9.0,5.0,4.0
2020-10-20T04:40:00Z,44489,9302001,West Chedabucto Bay,0.0,45.48687,-61.14100000000001,18,2020-10-20T04:40:00.000Z,110,2020-10-20T04:43:09.984Z,45.48738,100,-61.14125,100,13.5,100,12.6,100,12.4,100,0.0,100,3.6,100,,-1,,-1,,-1,,-1,,-1,,-1,,-1,,-1,1028.9,100,3.6,100,143,100,7.2,100,5.0,100,8,1,-0.4,1,1028.9,1,1028.9,1028.9,3.6,3.2,143,148,7.2,6.8,5.0,4.0
2020-10-20T04:50:00Z,44489,9302001,West Chedabucto Bay,0.0,45.48687,-61.14100000000001,18,2020-10-20T04:50:00.000Z,110,2020-10-20T04:53:16.157Z,45.48733,100,-61.14122,100,13.4,100,12.6,100,12.4,100,0.0,100,3.6,100,,-1,,-1,,-1,,-1,,-1,,-1,,-1,,-1,1028.9,100,2.9,100,19,100,9.4,100,5.0,100,8,1,-0.5,1,1028.9,1,1028.9,1028.9,2.9,2.9,19,27,9.4,9.4,5.0,4.0
2020-10-20T05:00:00Z,44489,9302001,West Chedabucto Bay,0.0,45.48687,-61.14100000000001,18,2020-10-20T05:00:00.000Z,108,2020-10-20T05:04:21.995Z,45.4873,100,-61.1412,100,13.5,100,12.6,100,12.4,100,0.0,100,3.6,100,0.3,100,0.6,100,6.7,100,0.4,100,0.5,100,6.9,100,5.0,100,7.1,100,1028.8,100,4.7,100,150,100,9.0,100,5.0,100,7,1,-0.8,1,1028.8,1,1028.8,1028.8,4.7,4.3,150,155,9.0,9.0,5.0,4.0
2020-10-20T05:10:00Z,44489,9302001,West Chedabucto Bay,0.0,45.48687,-61.14100000000001,18,2020-10-20T05:10:00.000Z,110,2020-10-20T05:16:15.942Z,45.48738,100,-61.14127,100,14.1,100,12.6,100,12.4,100,0.0,100,3.6,100,,-1,,-1,,-1,,-1,,-1,,-1,,-1,,-1,1028.7,100,10.1,100,176,100,12.6,100,5.0,100,6,1,-1.1,1,1028.7,1,1028.7,1028.7,10.1,9.7,176,181,12.6,12.2,5.0,4.0
2020-10-20T05:20:00Z,44489,9302001,West Chedabucto Bay,0.0,45.48687,-61.14100000000001,18,2020-10-20T05:20:00.000Z,110,2020-10-20T05:23:11.569Z,45.4874,100,-61.14127,100,14.1,100,12.6,100,12.4,100,0.0,100,3.6,100,,-1,,-1,,-1,,-1,,-1,,-1,,-1,,-1,1028.7,100,12.6,100,180,100,15.1,100,5.0,100,6,1,-1.0,1,1028.7,1,1028.7,1028.7,12.6,11.9,180,185,15.1,14.8,5.0,4.0
2020-10-20T05:30:00Z,44489,9302001,West Chedabucto Bay,0.0,45.48687,-61.14100000000001,18,2020-10-20T05:30:00.000Z,110,2020-10-20T05:33:13.167Z,45.48737,100,-61.1412,100,14.1,100,12.6,100,12.4,100,0.0,100,3.6,100,,-1,,-1,,-1,,-1,,-1,,-1,,-1,,-1,1028.7,100,13.7,100,185,100,14.8,100,5.0,100,6,1,-1.0,1,1028.7,1,1028.7,1028.7,13.7,13.3,185,190,14.8,14.4,5.0,4.0
2020-10-20T05:40:00Z,44489,9302001,West Chedabucto Bay,0.0,45.48687,-61.14100000000001,18,2020-10-20T05:40:00.000Z,110,2020-10-20T05:43:23.893Z,45.48742,100,-61.14128,100,14.2,100,12.6,100,12.4,100,0.0,100,3.6,100,,-1,,-1,,-1,,-1,,-1,,-1,,-1,,-1,1028.7,100,13.7,100,193,100,15.1,100,5.0,100,6,1,-0.8,1,1028.7,1,1028.7,1028.8,13.7,13.0,193,197,15.1,14.4,5.0,4.0
2020-10-20T05:50:00Z,44489,9302001,West Chedabucto Bay,0.0,45.48687,-61.14100000000001,18,2020-10-20T05:50:00.000Z,110,2020-10-20T05:53:29.721Z,45.48738,100,-61.14125,100,14.5,100,12.6,100,12.4,100,0.0,100,3.6,100,,-1,,-1,,-1,,-1,,-1,,-1,,-1,,-1,1028.7,100,13.3,100,198,100,14.8,100,5.0,100,6,1,-0.8,1,1028.7,1,1028.7,1028.7,13.3,13.0,198,203,14.8,14.4,5.0,4.0
2020-10-20T06:00:00Z,44489,9302001,West Chedabucto Bay,0.0,45.48687,-61.14100000000001,18,2020-10-20T06:00:00.000Z,108,2020-10-20T06:03:31.771Z,45.48737,100,-61.14122,100,14.3,100,12.6,100,12.4,100,0.0,100,3.6,100,0.3,100,0.7,100,6.4,100,0.4,100,0.6,100,6.8,100,4.8,100,8.0,100,1028.7,100,13.7,100,192,100,16.2,100,5.0,100,7,1,-0.6,1,1028.7,1,1028.7,1028.7,13.7,13.0,192,196,16.2,15.1,5.0,4.0
2020-10-20T06:10:00Z,44489,9302001,West Chedabucto Bay,0.0,45.48687,-61.14100000000001,18,2020-10-20T06:10:00.000Z,110,2020-10-20T06:16:29.501Z,45.48737,100,-61.14123000000001,100,14.1,100,12.6,100,12.4,100,0.0,100,3.6,100,,-1,,-1,,-1,,-1,,-1,,-1,,-1,,-1,1028.6,100,15.1,100,191,100,17.3,100,5.0,100,6,1,-0.7,1,1028.6,1,1028.6,1028.6,15.1,14.8,191,196,17.3,16.9,5.0,4.0
2020-10-20T06:20:00Z,44489,9302001,West Chedabucto Bay,0.0,45.48687,-61.14100000000001,18,2020-10-20T06:20:00.000Z,110,2020-10-20T06:23:30.052Z,45.48738,100,-61.1412,100,14.0,100,12.6,100,12.4,100,0.0,100,3.6,100,,-1,,-1,,-1,,-1,,-1,,-1,,-1,,-1,1028.6,100,14.8,100,197,100,16.9,100,5.0,100,6,1,-0.7,1,1028.6,1,1028.6,1028.6,14.8,14.0,197,203,16.9,16.6,5.0,4.0
2020-10-20T06:30:00Z,44489,9302001,West Chedabucto Bay,0.0,45.48687,-61.14100000000001,18,2020-10-20T06:30:00.000Z,110,2020-10-20T06:33:32.078Z,45.48737,100,-61.14122,100,13.9,100,12.6,100,12.4,100,0.0,100,3.6,100,,-1,,-1,,-1,,-1,,-1,,-1,,-1,,-1,1028.5,100,15.5,100,192,100,17.3,100,5.0,100,6,1,-0.7,1,1028.5,1,1028.5,1028.6,15.5,15.1,192,197,17.3,16.9,5.0,4.0
2020-10-20T06:40:00Z,44489,9302001,West Chedabucto Bay,0.0,45.48687,-61.14100000000001,18,2020-10-20T06:40:00.000Z,110,2020-10-20T06:42:40.986Z,45.48738,100,-61.14122,100,14.2,100,12.6,100,12.4,100,0.0,100,3.6,100,,-1,,-1,,-1,,-1,,-1,,-1,,-1,,-1,1028.3,100,19.1,100,180,100,23.0,100,5.0,100,8,1,-0.9,1,1028.3,1,1028.3,1028.3,19.1,18.4,180,185,23.0,22.3,5.0,4.0
2020-10-20T06:50:00Z,44489,9302001,West Chedabucto Bay,0.0,45.48687,-61.14100000000001,18,2020-10-20T06:50:00.000Z,110,2020-10-20T06:52:35.710Z,45.4874,100,-61.14123000000001,100,14.4,100,12.6,100,12.4,100,0.0,100,3.6,100,,-1,,-1,,-1,,-1,,-1,,-1,,-1,,-1,1028.2,100,22.7,100,180,100,25.6,100,5.0,100,8,1,-0.9,1,1028.2,1,1028.2,1028.2,22.7,22.0,180,185,25.6,24.8,5.0,4.0
2020-10-20T07:00:00Z,44489,9302001,West Chedabucto Bay,0.0,45.48687,-61.14100000000001,18,2020-10-20T07:00:00.000Z,108,2020-10-20T07:03:46.134Z,45.48742,100,-61.14125,100,14.4,100,12.6,100,12.4,100,0.0,100,3.6,100,0.3,100,0.9,100,6.4,100,0.5,100,0.6,100,6.5,100,4.7,100,8.7,100,1028.2,100,24.5,100,179,100,27.0,100,5.0,100,8,1,-0.9,1,1028.2,1,1028.2,1028.2,24.5,23.8,179,184,27.0,26.3,5.0,4.0
2020-10-20T07:10:00Z,44489,9302001,West Chedabucto Bay,0.0,45.48687,-61.14100000000001,18,2020-10-20T07:10:00.000Z,110,2020-10-20T07:15:49.684Z,45.48738,100,-61.14125,100,14.2,100,12.6,100,12.4,100,0.0,100,3.6,100,,-1,,-1,,-1,,-1,,-1,,-1,,-1,,-1,1028.1,100,22.3,100,176,100,25.9,100,5.0,100,8,1,-0.9,1,1028.1,1,1028.1,1028.2,22.3,21.6,176,181,25.9,25.2,5.0,4.0
2020-10-20T07:20:00Z,44489,9302001,West Chedabucto Bay,0.0,45.48687,-61.14100000000001,18,2020-10-20T07:20:00.000Z,110,2020-10-20T07:22:49.974Z,45.48738,100,-61.14123000000001,100,14.0,100,12.6,100,12.4,100,0.0,100,3.6,100,,-1,,-1,,-1,,-1,,-1,,-1,,-1,,-1,1028.1,100,19.8,100,175,100,22.7,100,5.0,100,8,1,-0.8,1,1028.1,1,1028.1,1028.1,19.8,19.1,175,180,22.7,21.6,5.0,4.0
2020-10-20T07:30:00Z,44489,9302001,West Chedabucto Bay,0.0,45.48687,-61.14100000000001,18,2020-10-20T07:30:00.000Z,110,2020-10-20T07:32:47.901Z,45.4874,100,-61.14125,100,14.0,100,12.6,100,12.4,100,0.0,100,3.6,100,,-1,,-1,,-1,,-1,,-1,,-1,,-1,,-1,1028.0,100,19.4,100,179,100,21.2,100,5.0,100,8,1,-0.9,1,1028.0,1,1028.0,1028.1,19.4,18.7,179,184,21.2,20.2,5.0,4.0
2020-10-20T07:40:00Z,44489,9302001,West Chedabucto Bay,0.0,45.48687,-61.14100000000001,18,2020-10-20T07:40:00.000Z,110,2020-10-20T07:43:51.558Z,45.48742,100,-61.14127,100,14.1,100,12.6,100,12.4,100,0.0,100,3.6,100,,-1,,-1,,-1,,-1,,-1,,-1,,-1,,-1,1028.0,100,19.4,100,181,100,22.7,100,5.0,100,8,1,-1.0,1,1028.0,1,1028.0,1028.0,19.4,18.7,181,186,22.7,22.3,5.0,4.0
2020-10-20T07:50:00Z,44489,9302001,West Chedabucto Bay,0.0,45.48687,-61.14100000000001,18,2020-10-20T07:50:00.000Z,110,2020-10-20T07:52:55.769Z,45.4874,100,-61.14123000000001,100,14.4,100,12.6,100,12.4,100,0.0,100,3.6,100,,-1,,-1,,-1,,-1,,-1,,-1,,-1,,-1,1027.9,100,21.2,100,187,100,24.1,100,5.0,100,8,1,-1.1,1,1027.9,1,1027.9,1027.9,21.2,20.5,187,192,24.1,23.4,5.0,4.0
2020-10-20T08:00:00Z,44489,9302001,West Chedabucto Bay,0.0,45.48687,-61.14100000000001,18,2020-10-20T08:00:00.000Z,108,2020-10-20T08:02:57.796Z,45.4874,100,-61.14125,100,14.4,100,12.6,100,12.4,100,0.0,100,3.6,100,0.3,100,0.8,100,6.7,100,0.5,100,0.6,100,6.9,100,4.6,100,7.7,100,1027.7,100,23.0,100,187,100,25.9,100,5.0,100,8,1,-1.1,1,1027.7,1,1027.7,1027.7,23.0,22.3,187,192,25.9,25.2,5.0,4.0
2020-10-20T08:10:00Z,44489,9302001,West Chedabucto Bay,0.0,45.48687,-61.14100000000001,18,2020-10-20T08:10:00.000Z,110,2020-10-20T08:15:53.999Z,45.487429999999996,100,-61.14125,100,14.2,100,12.6,100,12.4,100,0.0,100,3.6,100,,-1,,-1,,-1,,-1,,-1,,-1,,-1,,-1,1027.5,100,23.8,100,180,100,25.6,100,5.0,100,8,1,-1.2,1,1027.5,1,1027.5,1027.6,23.8,23.0,180,185,25.6,24.8,5.0,4.0
2020-10-20T08:20:00Z,44489,9302001,West Chedabucto Bay,0.0,45.48687,-61.14100000000001,18,2020-10-20T08:20:00.000Z,110,2020-10-20T08:22:56.393Z,45.48742,100,-61.14125,100,14.4,100,12.6,100,12.4,100,0.0,100,3.6,100,,-1,,-1,,-1,,-1,,-1,,-1,,-1,,-1,1027.5,100,25.9,100,172,100,29.9,100,5.0,100,8,1,-1.3,1,1027.5,1,1027.5,1027.5,25.9,25.2,172,177,29.9,29.2,5.0,4.0
2020-10-20T08:30:00Z,44489,9302001,West Chedabucto Bay,0.0,45.48687,-61.14100000000001,18,2020-10-20T08:30:00.000Z,110,2020-10-20T08:33:18.805Z,45.48742,100,-61.14123000000001,100,14.5,100,12.6,100,12.4,100,0.0,100,3.6,100,,-1,,-1,,-1,,-1,,-1,,-1,,-1,,-1,1027.4,100,27.0,100,179,100,31.0,100,5.0,100,8,1,-1.4,1,1027.4,1,1027.4,1027.4,27.0,26.3,179,184,31.0,30.2,5.0,4.0
2020-10-20T08:40:00Z,44489,9302001,West Chedabucto Bay,0.0,45.48687,-61.14100000000001,18,2020-10-20T08:40:00.000Z,110,2020-10-20T08:43:26.551Z,45.4874,100,-61.14123000000001,100,14.5,100,12.6,100,12.4,100,0.0,100,3.6,100,,-1,,-1,,-1,,-1,,-1,,-1,,-1,,-1,1027.4,100,25.2,100,185,100,28.8,100,5.0,100,8,1,-1.4,1,1027.4,1,1027.4,1027.4,25.2,24.5,185,190,28.8,28.1,5.0,4.0
2020-10-20T08:50:00Z,44489,9302001,West Chedabucto Bay,0.0,45.48687,-61.14100000000001,18,2020-10-20T08:50:00.000Z,110,2020-10-20T08:53:17.961Z,45.487429999999996,100,-61.1412,100,14.9,100,12.6,100,12.4,100,0.0,100,3.6,100,,-1,,-1,,-1,,-1,,-1,,-1,,-1,,-1,1027.4,100,28.4,100,186,100,34.2,100,5.0,100,7,1,-1.3,1,1027.4,1,1027.4,1027.4,28.4,27.7,186,191,34.2,32.8,5.0,4.0
2020-10-20T09:00:00Z,44489,9302001,West Chedabucto Bay,0.0,45.48687,-61.14100000000001,18,2020-10-20T09:00:00.000Z,108,2020-10-20T09:03:23.304Z,45.48742,100,-61.14131999999999,100,14.4,100,12.6,100,12.4,100,0.0,100,3.6,100,0.3,100,0.9,100,5.9,100,0.5,100,0.6,100,6.3,100,3.9,100,7.4,100,1027.6,100,24.8,100,189,100,28.8,100,5.0,100,6,1,-1.1,1,1027.6,1,1027.6,1027.6,24.8,24.1,189,194,28.8,28.1,5.0,4.0
2020-10-20T09:10:00Z,44489,9302001,West Chedabucto Bay,0.0,45.48687,-61.14100000000001,18,2020-10-20T09:10:00.000Z,110,2020-10-20T09:16:20.951Z,45.48742,100,-61.14125,100,14.0,100,12.6,100,12.4,100,0.0,100,3.6,100,,-1,,-1,,-1,,-1,,-1,,-1,,-1,,-1,1027.7,100,21.2,100,190,100,23.4,100,5.0,100,5,1,-0.9,1,1027.7,1,1027.7,1027.7,21.2,20.9,190,195,23.4,23.0,5.0,4.0
2020-10-20T09:20:00Z,44489,9302001,West Chedabucto Bay,0.0,45.48687,-61.14100000000001,18,2020-10-20T09:20:00.000Z,110,2020-10-20T09:23:23.509Z,45.48742,100,-61.14123000000001,100,13.9,100,12.6,100,12.4,100,0.0,100,3.6,100,,-1,,-1,,-1,,-1,,-1,,-1,,-1,,-1,1027.6,100,18.4,100,187,100,21.2,100,5.0,100,5,1,-0.9,1,1027.6,1,1027.6,1027.7,18.4,17.6,187,192,21.2,20.5,5.0,4.0
2020-10-20T09:30:00Z,44489,9302001,West Chedabucto Bay,0.0,45.48687,-61.14100000000001,18,2020-10-20T09:30:00.000Z,110,2020-10-20T09:33:23.284Z,45.48742,100,-61.14125,100,13.8,100,12.6,100,12.4,100,0.0,100,3.6,100,,-1,,-1,,-1,,-1,,-1,,-1,,-1,,-1,1027.8,100,15.8,100,194,100,18.7,100,5.0,100,5,1,-0.8,1,1027.8,1,1027.8,1027.8,15.8,15.5,194,199,18.7,18.4,5.0,4.0
2020-10-20T09:40:00Z,44489,9302001,West Chedabucto Bay,0.0,45.48687,-61.14100000000001,18,2020-10-20T09:40:00.000Z,110,2020-10-20T09:44:09.646Z,45.48742,100,-61.14123000000001,100,14.0,100,12.6,100,12.4,100,0.0,100,3.6,100,,-1,,-1,,-1,,-1,,-1,,-1,,-1,,-1,1027.7,100,16.9,100,198,100,23.0,100,5.0,100,5,1,-0.6,1,1027.7,1,1027.7,1027.7,16.9,16.6,198,203,23.0,22.3,5.0,4.0
2020-10-20T09:50:00Z,44489,9302001,West Chedabucto Bay,0.0,45.48687,-61.14100000000001,18,2020-10-20T09:50:00.000Z,110,2020-10-20T09:53:25.262Z,45.48742,100,-61.14123000000001,100,14.6,100,12.6,100,12.4,100,0.0,100,3.6,100,,-1,,-1,,-1,,-1,,-1,,-1,,-1,,-1,1027.7,100,21.6,100,201,100,24.8,100,5.0,100,5,1,-0.5,1,1027.7,1,1027.7,1027.7,21.6,21.2,201,206,24.8,24.5,5.0,4.0